Regional Weather Roundup
Issued by NWS Upton, NY

Current Version | Previous Version | Graphics & Text | Print | Product List | Glossary Off
Versions: 1 2 3 4 5 6 7 8 9 10 11 12 13 14 15 16 17 18 19 20 21 22 23 24 25 26 27

000
ASUS41 KOKX 150605
RWROKX

REGIONAL WEATHER ROUNDUP
NATIONAL WEATHER SERVICE NEW YORK NY
200 AM EDT TUE APR 15 2014

NOTE: "FAIR" INDICATES FEW OR NO CLOUDS BELOW 12,000 FEET WITH NO
SIGNIFICANT WEATHER AND/OR OBSTRUCTIONS TO VISIBILITY.

NYZ071-072-176-178-NJZ106-104-150700-
NEW YORK CITY METRO AREA


CITY           SKY/WX    TMP DP  RH WIND       PRES   REMARKS
CENTRAL PARK   FAIR      59  53  80 S7        29.85F
LAGUARDIA APRT MOCLDY    55  51  86 S13       29.82F
KENNEDY INTL   FOG       53  52  96 S21G28    29.85F VSB 1/2
NEWARK/LIBERTY MOCLDY    65  57  75 S8        29.81F
TETERBORO      FAIR      65  55  70 S9        29.80F
$$

NYZ177-179-078>081-150700-
LONG ISLAND NEW YORK

CITY           SKY/WX    TMP DP  RH WIND       PRES   REMARKS
FARMINGDALE    FOG       53  53 100 S14       29.89F VSB 1/2
ISLIP          FOG       55  53  93 S10       29.89S VSB 1
SHIRLEY        CLOUDY    55  53  93 S15G26    29.91S FOG
WESTHAMPTON    CLOUDY    54  52  93 S12G25    29.92S
MONTAUK POINT    N/A     53  50  89 S10       29.94F
$$

NYZ052-065-067-150700-
HUDSON VALLEY

CITY           SKY/WX    TMP DP  RH WIND       PRES   REMARKS
WHITE PLAINS     N/A     56  54  93 S13G18    29.83F FOG
NEWBURGH       MOCLDY    64  57  77 S9G23     29.81F
MONTGOMERY     FAIR      65  55  70 S9        29.77F
POUGHKEEPSIE   FAIR      65  55  70 S12G20    29.78F
ALBANY         CLOUDY    65  53  65 S17G28    29.74F
$$

NJZ001-105-106-008-010-013-015-019>022-104-150700-
NEW JERSEY

CITY           SKY/WX    TMP DP  RH WIND       PRES   REMARKS
NEWARK/LIBERTY MOCLDY    65  57  75 S8        29.81F
TETERBORO      FAIR      65  55  70 S9        29.80F
CALDWELL       FAIR      65  56  72 S6        29.81F
MORRISTOWN     FAIR      66  55  68 S7        29.81F
SOMERVILLE     FAIR      64  55  72 SE6       29.78F
LINDEN         FAIR      67  58  72 S10       29.82F
SUSSEX         FAIR      66  55  67 SW7       29.77F
ANDOVER          N/A     63  55  75 S8        29.78F
TRENTON        FAIR      65  57  75 S10       29.80F
MILLVILLE      CLOUDY    60  58  92 S8G20     29.84F
ATLANTIC CITY  CLOUDY    58  57  97 S16G29    29.86F FOG
WRIGHTSTOWN    MOCLDY    63  59  86 S13       29.81F
TOMS RIVER     CLOUDY    63  57  82 S14G24    29.84F
BELMAR         MOCLDY    63  55  77 S14G20    29.83F
$$

PAZ047>061-062-071-150700-
EASTERN PENNSYLVANIA

CITY           SKY/WX    TMP DP  RH WIND       PRES   REMARKS
PHILADELPHIA   CLOUDY    66  57  72 S18G24    29.81F
ALLENTOWN      MOCLDY    66  55  67 S14       29.77F
SCRANTON       CLOUDY    65  53  65 S8G20     29.72F
$$

CTZ002-004>006-009-010-012-RIZ004-006-007-MAZ004-011-015-150700-
SOUTHERN NEW ENGLAND
 IN CT

CITY           SKY/WX    TMP DP  RH WIND       PRES   REMARKS
BRADLEY INTL   CLOUDY    61  57  87 S14       29.85F
HARTFORD       CLOUDY    61  58  90 S6        29.88S
DANBURY        FAIR      60  56  86 S9G18     29.85F
WTRBRY/OXFORD  CLOUDY    59  55  88 S13G29    29.89F
BRIDGEPORT     CLOUDY    56  54  93 SW10      29.89S
MERIDEN        CLOUDY    59  56  89 S9        29.88F
NEW HAVEN      CLOUDY    57  54  89 SW5       29.89F
CHESTER        CLOUDY    57  57 100 S9G21     29.92S FOG
GROTON         CLOUDY    50  49  96 S10       29.92S FOG
WILLIMANTIC    CLOUDY    62  58  86 SW15G25   29.90F

 IN RI

CITY           SKY/WX    TMP DP  RH WIND       PRES   REMARKS
PROVIDENCE     CLOUDY    61  56  83 S24G32    29.93F
BLOCK ISLAND   CLOUDY    52  46  82 S17       29.94S
WESTERLY       CLOUDY    51  49  92 S10       29.94F

 IN MA

CITY           SKY/WX    TMP DP  RH WIND       PRES   REMARKS
BOSTON         CLOUDY    61  55  81 SW21G29   29.89F
WORCESTER      CLOUDY    60  56  86 SW17G29   29.88F
WESTFIELD      CLOUDY    63  56  78 S14G26    29.83F
PROVINCETOWN   MOCLDY    54  48  82 MISG      29.93F
NANTUCKET      MOCLDY    51  48  89 S15       29.99F
$$

ANZ330-335-338-340-345-350-353-355-150700-
COASTAL MARINE OBSERVATIONS


STATION/POSITION TIME  SKY/WX   TEMP    WIND        PRES    VSBY  WAVE
                                AIR SEA DIR/SP/G                  HT/PER
                 (UTC)          (F)     (DEG/KT/KT) (MB)    (MI)  (FT/S)
NY HARB ENTRANCE 0600            48 43  200/ 16/ 17 1011.0
4S FIRE IS       0500               45                N/A           6/ 7
23SW MTP         0600            50 43  190/ 17/ 19 1012.7          6/ 8
HUDSON CANYON    0500            53 46  180/ 23/ 25 1012.7          7/ 8
EXECUTION ROCKS  0600            53 43  190/ 12/ 17   N/A
WESTERN LI SOUND 0600            54     190/ 14/ 16   N/A           2/ 3
CENTRAL LI SOUND 0500            52 42  190/ 14/ 19   N/A           2/ 3
EASTERN LI SOUND NOT AVBL
ROBBINS REEF     0600            59     160/ 14/ 15   N/A
$$


>>>>>>>>>>>>>>>>>>>>>>>>>>>> KEY <<<<<<<<<<<<<<<<<<<<<<<<<<<
>                                                          <
>     SKY/WX - SKY CONDITION/PRESENT WEATHER               <
>     TMP    - TEMPERATURE IN FAHRENHEIT                   <
>     DP     - DEWPOINT IN FAHRENHEIT                      <
>     RH     - RELATIVE HUMIDITY IN PERCENT                <
>     WIND   - DIRECTION AND SPEED IN MPH                  <
>     PRES   - MEAN SEA LEVEL PRESSURE IN INCHES OF HG     <
>     WCI    - WIND CHILL INDEX                            <
>     VSB    - VISIBILITY IN MILES                         <
>     HX     - HEAT INDEX                                  <
>     TC     - TEMPERATURE IN CELSIUS                      <
>     VRB    - VARIABLE WIND DIRECTION                     <
>                                                          <
>>>>>>>>>>>>>>>>>>>>>>>>>>>> KEY <<<<<<<<<<<<<<<<<<<<<<<<<<<





USA.gov is the U.S. government's official web portal to all federal, state and local government web resources and services.